ELEKTRO-L 3

Last updated on Tue Oct 14 2025 00:02:34 GMT+0000 (Coordinated Universal Time)

1 44903U 19095A 25286.64528550 -.00000110 00000+0 00000+0 0 9993 2 44903 0.0384 18.6189 0002073 236.2921 75.9002 1.00271731 21230
UTC large
Height (km)
Speed (km/s)
/
Latitude / Longitude
Inclination (degrees)
Orbital Period (minutes)
Azimuth
Elevation
Range (km)
Doppler Factor

Next 0 passes for location: London (51.5072 / 0.1276)

Sorry there are no passes over London.